Regional Weather Roundup
Issued by NWS

Home | Current Version | Previous Version | Graphics & Text | Print | Product List | Glossary On
Versions: 1 2 3 4 5 6 7 8 9 10 11 12 13 14 15 16 17 18 19 20 21 22 23 24 25 26 27 28 29 30 31 32 33 34 35 36 37 38 39 40 41 42 43 44 45 46 47 48 49 50
000
ASUS43 KMPX 011301
RWRMN
WEATHER ROUNDUP FOR MINNESOTA
NATIONAL WEATHER SERVICE TWIN CITIES/CHANHASSEN MN
800 AM CDT WED APR 01 2015


NOTE: "FAIR" INDICATES FEW OR NO CLOUDS BELOW 12,000 FEET WITH NO
SIGNIFICANT WEATHER AND/OR OBSTRUCTIONS TO VISIBILITY. N/A MEANS
CURRENT SKY AND/OR WEATHER CONDITIONS ARE NOT AVAILABLE.

MNZ060>063-068>070-011400-
   Twin Cities Metro

CITY           SKY/WX    TMP DP  RH WIND       PRES   REMARKS
TWIN CITIES    MOSUNNY   48  34  58 SE10      29.78S
ST PAUL        SUNNY     47  33  58 SE9       29.80S
CRYSTAL        SUNNY     50  33  52 SE13      29.76R
BLAINE         MOSUNNY   48  34  57 SE8       29.77S
LAKEVILLE      SUNNY     43  36  75 SE3       29.78S
EDEN PRAIRIE   SUNNY     48  34  58 SE10      29.76S
SOUTH ST PAUL  SUNNY     47  33  57 SE8       29.79S
LAKE ELMO      FAIR      45  32  61 SE8       29.81S
$$
MNZ001>005-007-008-013>017-022>024-027-028-011400-
   Northwest Minnesota

CITY           SKY/WX    TMP DP  RH WIND       PRES   REMARKS
BEMIDJI        PTCLDY    39  29  67 SE14G21   29.60F
HALLOCK        MOCLDY    46  30  53 SE15      29.47F
ROSEAU         MOCLDY    43  30  61 SE13      29.56F
WARROAD        PTCLDY    39  32  75 E9        29.59F
THIEF RVR FALL MOCLDY    43  30  61 SE14      29.50F
CROOKSTON      PTCLDY    46  32  57 SE16      29.48F
FOSSTON        CLEAR     45  28  53 SE15G22   29.52F
DETROIT LAKES  PTCLDY    45  32  61 SE17      29.55F
MOORHEAD       PTCLDY    50  36  57 SE14G21   29.48F
PARK RAPIDS    PTCLDY    45  27  49 SE17      29.61F
MAHNOMEN       FAIR      48  29  49 SE21G32   29.52F
$$
MNZ006-009>011-018-025>026-011400-
   North Central Minnesota

CITY           SKY/WX    TMP DP  RH WIND       PRES   REMARKS
BAUDETTE       CLEAR     38  29  70 SE15      29.62F
FLAG ISLAND    CLEAR     36  28  75 SE8       29.62F
INTL FALLS     MOSUNNY   35  29  78 SE9       29.70F WCI  28
WASKISH        PTCLDY    39  30  70 E13G18    29.61F
BIG FORK       MOSUNNY   37  28  70 SE10      29.69F
LONGVILLE      MOSUNNY   37  30  75 SE8G20    29.66F
GRAND RAPIDS   MOSUNNY   36  28  75 SE14G22   29.70F
ORR            PTSUNNY   36  27  69 SE9G20    29.71F
COOK           PTSUNNY   36  28  75 SE12G17   29.74F
WALKER         FAIR      39  28  65 SE8       29.64F
$$
MNZ012-019>021-037-011400-
   Northeast Minnesota

CITY           SKY/WX    TMP DP  RH WIND       PRES   REMARKS
DULUTH         CLOUDY    31  29  92 E17       29.83F WCI  19
ELY            MOSUNNY   32  28  86 SE9       29.82F WCI  24
HIBBING        FAIR      35  28  75 SE16      29.76F WCI  25
EVELETH        PTSUNNY   34  30  86 SE12      29.79F WCI  25
DULUTH HARBOR  CLOUDY    34  30  86 NE18      29.89F WCI  23
TWO HARBORS    CLOUDY    34  28  80 E14       29.87F WCI  24
SILVER BAY     CLOUDY    30  28  93 NE8       29.89F WCI  23
GRAND MARAIS     N/A     31  29  92 NE7       29.97F WCI  24
G MARAIS ARPRT SNOW      25  21  86 E3        29.91F VSB<1/4
$$
MNZ029>031-032-039>041-046>048-054>057-064-011400-
   West Central Minnesota

CITY           SKY/WX    TMP DP  RH WIND       PRES   REMARKS
FERGUS FALLS   PTCLDY    52  28  40 SE17G24   29.54F
WHEATON        CLEAR     45  34  65 SE20      29.51F
MORRIS         CLEAR     45  34  65 SE17      29.55F
ALEXANDRIA     CLEAR     43  33  68 SE14      29.61F
ELBOW LAKE     FAIR      48  33  55 SE18G24   29.54F
WADENA         MOCLDY    43  30  61 SE13      29.61F
GLENWOOD       CLEAR     46  34  61 SE12      29.62F
APPLETON       CLEAR     52  34  50 SE8       29.56F
BENSON         PTCLDY    46  32  57 S12       29.59F
ORTONVILLE     CLEAR     57  34  41 S12       29.53F
MADISON        PTCLDY    63  30  29 S26G37    29.54S
WILLMAR        FAIR      46  34  61 SE12      29.65F
$$
MNZ033>034-036-042>043-049>051-058-059-011400-
   Central Minnesota

CITY           SKY/WX    TMP DP  RH WIND       PRES   REMARKS
ST CLOUD       SUNNY     46  31  55 SE9       29.71F
SAUK CENTRE    FAIR      44  34  67 SE10      29.65S
PAYNESVILLE    CLEAR     44  32  63 E14G20    29.67S
AITKIN         MOSUNNY   43  30  61 E9        29.70F
PINE RIVER     CLEAR     39  30  70 SE10      29.70F
BRAINERD       SUNNY     40  29  64 SE12G18   29.68F
STAPLES        PTCLDY    45  28  53 SE10G16   29.63F
LONG PRAIRIE   FAIR      41  32  70 SE8       29.65F
LITTLE FALLS   CLEAR     43  28  56 SE10G20   29.67F
LITCHFIELD     CLEAR     50  34  53 SE3       29.69F
BUFFALO        SUNNY     48  32  53 SE8       29.73F
MAPLE LAKE     MOSUNNY   48  36  61 SE9       29.73S
$$
MNZ037-044-045-052-053-011400-
   East Central Minnesota

CITY           SKY/WX    TMP DP  RH WIND       PRES   REMARKS
PRINCETON      SUNNY     46  30  53 SE12      29.74F
MORA           SUNNY     37  30  75 E7        29.78F
CAMBRIDGE      SUNNY     46  32  57 SE9       29.74F
RUSH CITY      MOSUNNY   42  31  64 SE6       29.77F
MOOSE LAKE     MOSUNNY   34  30  86 CALM      29.77F
HINCKLEY       FAIR      39  32  75 E10       29.78F
CLOQUET        PTSUNNY   34  30  86 E10       29.81F WCI  26
MCGREGOR       SUNNY     36  32  87 SE10G17   29.74F
$$
MNZ071>073-080-081-089-090-097-098-011400-
   Southwest Minnesota

CITY           SKY/WX    TMP DP  RH WIND       PRES   REMARKS
MONTEVIDEO     PTCLDY    59  34  38 SW13      29.60F
GRANITE FALLS  PTCLDY    60  33  35 S24       29.62F
CANBY          PTCLDY    60  32  34 S25G44    29.55F
MARSHALL       PTCLDY    59  30  33 SW37G45   29.61F
REDWOOD FALLS  CLEAR     55  33  43 S15G23    29.65F
OLIVIA         PTCLDY    46  34  61 S12       29.65F
PIPESTONE      CLEAR     54  32  43 S21       29.65F
WINDOM         CLEAR     57  30  35 S20G26    29.70F
WORTHINGTON    CLEAR     54  30  40 S21G28    29.71F
JACKSON        CLEAR     54  32  43 S14       29.74S
TRACY          PTCLDY    59  32  36 S28G35    29.64F
SLAYTON        FAIR      53  27  37 S22G28    29.67F
$$
MNZ065>067-074>077-082>085-091>093-011400-
   South Central Minnesota

CITY           SKY/WX    TMP DP  RH WIND       PRES   REMARKS
MANKATO        SUNNY     48  32  53 S15G21    29.75F
NEW ULM        CLEAR     46  32  57 S12       29.71S
ST JAMES       CLEAR     50  32  50 S15       29.73S
FAIRMONT       SUNNY     45  28  53 S13       29.75S
GLENCOE        SUNNY     50  37  61 S9G17     29.72S
FARIBAULT      SUNNY     48  36  61 S10       29.79S
OWATONNA       SUNNY     48  34  57 S17       29.79S
WASECA         SUNNY     48  34  57 S16       29.79S
ALBERT LEA     SUNNY     45  34  65 S12       29.81S
$$
MNZ078>079-086>088-094>096-011400-
   Southeast Minnesota

CITY           SKY/WX    TMP DP  RH WIND       PRES   REMARKS
ROCHESTER      SUNNY     46  33  60 S14       29.85S
RED WING       SUNNY     46  32  57 SE9       29.83S
STANTON        SUNNY     49  34  55 S13       29.78S
DODGE CENTER   SUNNY     46  36  66 S17       29.82S
WINONA         SUNNY     41  32  70 SE8       29.90S
AUSTIN         SUNNY     45  34  65 S9        29.84R
PRESTON        SUNNY     45  32  60 S10       29.87S
$$
ABBREVIATIONS USED IN REMARKS
   TC - TEMPERATURES IN CELSIUS
  WCI - WIND CHILL INDEX
   HX - HEAT INDEX
  VSB - VISIBILITY
$$



USA.gov is the U.S. government's official web portal to all federal, state and local government web resources and services.